Tracking 19476 objects as of 17-Jan-2019
HD Live streaming from Space Station
objects crossing your sky now

COSMOS 1850

Track COSMOS 1850 now!
10-day predictions
COSMOS 1850 is classified as:


NORAD ID: 18095
Int'l Code: 1987-049A
Perigee: 776.6 km
Apogee: 799.8 km
Inclination: 74.0 °
Period: 100.5 minutes
Semi major axis: 7159 km
RCS: 2.0926 m2 (large)
Launch date: June 9, 1987
Source: Commonwealth of Independent States (former USSR) (CIS)
Launch site: PLESETSK MISSILE AND SPACE COMPLEX (PKMTR)
aabbcc
Your satellite tracking list
Your tracking list is empty




NASA's NSSDC Master Catalog

Two Line Element Set (TLE):
1 18095U 87049A   19016.34139146 -.00000009  00000-0  61783-5 0  9999
2 18095  74.0406 328.4992 0016220 281.9138  78.0194 14.33191732652024
Source of the keplerian elements: AFSPC